Location: Artiguedieu
(43.5000°N, 0.5454°E)
Time: 08:48:09
(UTC+00:00)

Explorer 7 - Pass Details

Date: 06 August 2021
Orbit: 484 x 676 km, 50.3° (Epoch: 22 September)

Event Time Altitude Azimuth Distance (km) Brightness Sun altitude
Rises 08:56:12 0° 297° (WNW) 2,651 9.9 42.2°
Reaches altitude 10° 08:58:23 10° 293° (WNW) 1,788 9.1 42.6°
Maximum altitude 09:02:21 56° 216° (SW) 668 7.7 43.2°
Drops below altitude 10° 09:06:35 10° 138° (SE) 1,895 10.4 44.0°
Sets 09:08:57 0° 134° (SE) 2,828 11.1 44.4°
